User: anonymous   Login
Location: Fours
(44.3167°N, 6.7000°E)
Time: 01:24:19
(UTC+00:00)
Language:

Cosmos 2098 - Orbit

View from above orbital plane
View from above orbital plane
View from above satellite
View from above satellite

Ground track
Ground track

The orbit data is extracted from the following two-line orbital elements,

1 20774U 90078A   22276.52808408  .00007397  00000-0  56232-3 0  9995
2 20774  82.9477  28.5848 0805703 130.5115 236.9146 13.75553957585574
Epoch (UTC): 03 October 2022 12:40:26
Eccentricity: 0.0805703
inclination: 82.9477°
perigee height: 387 km
apogee height: 1572 km
right ascension of ascending node: 28.5848°
argument of perigee: 130.5115°
revolutions per day: 13.75553957
mean anomaly at epoch: 236.9146°
orbit number at epoch: 58557

The dashed part of the orbit path shows where the satellite is in the earth's shadow,  

DLR